EWG7KH EDDL-EDDC

Flight info

Callsign EWG7KH
Flight time 0h 48m
Altitude 27000
Route NUDGO5Z NUDGO Z858 BERDI Z21 DRN
Aircraft A320/M-SDE3FGHIRWY/LB1

Departure

Time 2026-05-08 17:01
Airport Düsseldorf Airport (EDDL)

Arrival

Time 2026-05-08 17:50
Airport Dresden Airport (EDDC)
Time Latitude Longitude Altitude Speed Heading
2026-05-08 16:28 51.28068 6.76534 127 ft 0 kts 96°
2026-05-08 16:51 51.28069 6.76528 130 ft 3 kts 96°
2026-05-08 16:51 51.28072 6.76486 129 ft 4 kts 102°
2026-05-08 16:51 51.28081 6.76448 127 ft 3 kts 130°
2026-05-08 16:51 51.28095 6.76421 127 ft 4 kts 134°
2026-05-08 16:52 51.28111 6.76395 126 ft 2 kts 134°
2026-05-08 16:52 51.28127 6.76365 130 ft 4 kts 120°
2026-05-08 16:52 51.28140 6.76328 128 ft 3 kts 116°
2026-05-08 16:52 51.28148 6.76291 126 ft 4 kts 94°
2026-05-08 16:53 51.28132 6.76213 128 ft 4 kts 52°
2026-05-08 16:53 51.28119 6.76188 126 ft 0 kts 52°
2026-05-08 16:56 51.28125 6.76200 126 ft 5 kts 52°
2026-05-08 16:56 51.28156 6.76246 128 ft 7 kts 25°
2026-05-08 16:56 51.28204 6.76207 126 ft 9 kts 284°
2026-05-08 16:56 51.28179 6.76124 127 ft 8 kts 234°
2026-05-08 16:57 51.28139 6.76037 128 ft 12 kts 234°
2026-05-08 16:57 51.28076 6.75908 127 ft 16 kts 232°
2026-05-08 16:57 51.28014 6.75778 127 ft 14 kts 232°
2026-05-08 16:57 51.27961 6.75669 126 ft 7 kts 232°
2026-05-08 16:58 51.27945 6.75594 127 ft 7 kts 275°
2026-05-08 16:58 51.27973 6.75542 126 ft 6 kts 332°
2026-05-08 16:58 51.27983 6.75534 125 ft 0 kts 334°
2026-05-08 16:59 51.27988 6.75531 125 ft 3 kts 334°
2026-05-08 16:59 51.28021 6.75504 124 ft 7 kts 334°
2026-05-08 16:59 51.28068 6.75479 122 ft 6 kts 346°
2026-05-08 17:00 51.28096 6.75490 126 ft 3 kts 32°
2026-05-08 17:00 51.28106 6.75507 122 ft 2 kts 47°
2026-05-08 17:00 51.28150 6.75596 127 ft 37 kts 53°
2026-05-08 17:00 51.28464 6.76258 127 ft 109 kts 53°
2026-05-08 17:01 51.29040 6.77443 180 ft 157 kts 52°
2026-05-08 17:01 51.29691 6.78834 921 ft 154 kts 52°
2026-05-08 17:01 51.30338 6.80224 1639 ft 160 kts 52°
2026-05-08 17:01 51.31064 6.81738 2017 ft 183 kts 52°
2026-05-08 17:02 51.31889 6.83466 2383 ft 208 kts 52°
2026-05-08 17:02 51.32815 6.85414 2824 ft 232 kts 52°
2026-05-08 17:02 51.33830 6.87582 3364 ft 253 kts 54°
2026-05-08 17:02 51.34840 6.89934 4239 ft 260 kts 62°
2026-05-08 17:03 51.35274 6.92707 5122 ft 266 kts 91°
2026-05-08 17:03 51.35036 6.95659 6023 ft 270 kts 99°
2026-05-08 17:03 51.34726 6.98653 6889 ft 276 kts 100°
2026-05-08 17:03 51.34408 7.01713 7743 ft 281 kts 100°
2026-05-08 17:04 51.34088 7.04818 8611 ft 285 kts 100°
2026-05-08 17:04 51.33762 7.07975 9505 ft 290 kts 100°
2026-05-08 17:04 51.33429 7.11185 10325 ft 296 kts 100°
2026-05-08 17:04 51.33081 7.14557 10658 ft 320 kts 100°
2026-05-08 17:05 51.32716 7.18160 11141 ft 334 kts 99°
2026-05-08 17:05 51.32395 7.21869 11852 ft 340 kts 97°
2026-05-08 17:05 51.32119 7.25607 12604 ft 345 kts 97°
2026-05-08 17:05 51.31851 7.29445 13397 ft 349 kts 96°
2026-05-08 17:06 51.31583 7.33326 14130 ft 353 kts 97°
2026-05-08 17:06 51.31276 7.37237 14798 ft 357 kts 101°
2026-05-08 17:06 51.30606 7.41068 15463 ft 359 kts 109°
2026-05-08 17:06 51.30133 7.44989 16115 ft 364 kts 89°
2026-05-08 17:07 51.30564 7.48984 16760 ft 367 kts 77°
2026-05-08 17:07 51.31130 7.52976 17452 ft 370 kts 78°
2026-05-08 17:07 51.31654 7.57025 18131 ft 373 kts 79°
2026-05-08 17:07 51.32136 7.61057 18729 ft 376 kts 80°
2026-05-08 17:08 51.32608 7.65197 19307 ft 380 kts 80°
2026-05-08 17:08 51.33074 7.69378 19811 ft 385 kts 80°
2026-05-08 17:08 51.33545 7.73609 20339 ft 389 kts 80°
2026-05-08 17:08 51.34024 7.77886 20893 ft 392 kts 80°
2026-05-08 17:09 51.34509 7.82191 21429 ft 395 kts 80°
2026-05-08 17:09 51.35000 7.86537 21969 ft 399 kts 80°
2026-05-08 17:09 51.35494 7.90922 22493 ft 402 kts 80°
2026-05-08 17:09 51.35985 7.95277 23010 ft 405 kts 80°
2026-05-08 17:10 51.36485 7.99728 23539 ft 408 kts 80°
2026-05-08 17:10 51.36987 8.04216 23986 ft 411 kts 80°
2026-05-08 17:10 51.37491 8.08734 24406 ft 414 kts 80°
2026-05-08 17:10 51.37996 8.13278 24845 ft 416 kts 80°
2026-05-08 17:11 51.38504 8.17853 25259 ft 419 kts 80°
2026-05-08 17:11 51.39010 8.22452 25663 ft 421 kts 80°
2026-05-08 17:11 51.39518 8.27090 26081 ft 424 kts 80°
2026-05-08 17:11 51.40027 8.31743 26479 ft 426 kts 80°
2026-05-08 17:12 51.40538 8.36437 26888 ft 428 kts 80°
2026-05-08 17:12 51.41042 8.41083 27099 ft 430 kts 80°
2026-05-08 17:12 51.41355 8.45761 27141 ft 414 kts 90°
2026-05-08 17:12 51.41307 8.50308 27142 ft 405 kts 92°
2026-05-08 17:13 51.41248 8.54808 27140 ft 403 kts 92°
2026-05-08 17:13 51.41194 8.59288 27143 ft 402 kts 91°
2026-05-08 17:13 51.41144 8.63756 27135 ft 401 kts 91°
2026-05-08 17:13 51.41093 8.68227 27143 ft 402 kts 91°
2026-05-08 17:14 51.41038 8.72705 27145 ft 403 kts 92°
2026-05-08 17:14 51.40882 8.77181 27138 ft 402 kts 98°
2026-05-08 17:14 51.40530 8.81561 27146 ft 402 kts 98°
2026-05-08 17:14 51.40172 8.86003 27148 ft 402 kts 98°
2026-05-08 17:15 51.39814 8.90445 27145 ft 402 kts 98°
2026-05-08 17:15 51.39457 8.94877 27141 ft 402 kts 98°
2026-05-08 17:15 51.39100 8.99317 27138 ft 402 kts 98°
2026-05-08 17:15 51.38746 9.03756 27146 ft 402 kts 98°
2026-05-08 17:16 51.38540 9.08217 27145 ft 402 kts 90°
2026-05-08 17:16 51.38668 9.12684 27141 ft 402 kts 87°
2026-05-08 17:16 51.38813 9.17162 27148 ft 403 kts 88°
2026-05-08 17:16 51.38950 9.21594 27153 ft 409 kts 88°
2026-05-08 17:17 51.39086 9.26213 27149 ft 423 kts 88°
2026-05-08 17:17 51.39221 9.30983 27156 ft 434 kts 88°
2026-05-08 17:17 51.39356 9.35832 27154 ft 438 kts 88°
2026-05-08 17:17 51.39491 9.40712 27137 ft 439 kts 88°
2026-05-08 17:18 51.39621 9.45606 27136 ft 439 kts 88°
2026-05-08 17:18 51.39745 9.50491 27136 ft 440 kts 88°
2026-05-08 17:18 51.39870 9.55378 27141 ft 439 kts 88°
2026-05-08 17:18 51.39996 9.60266 27143 ft 439 kts 88°
2026-05-08 17:19 51.40079 9.63506 27140 ft 439 kts 88°
2026-05-08 17:19 51.40242 9.69989 27147 ft 440 kts 88°
2026-05-08 17:19 51.40367 9.74880 27155 ft 440 kts 88°
2026-05-08 17:19 51.40492 9.79776 27154 ft 440 kts 88°
2026-05-08 17:20 51.40614 9.84680 27152 ft 440 kts 88°
2026-05-08 17:20 51.40692 9.87923 27153 ft 440 kts 88°
2026-05-08 17:20 51.40845 9.94474 27144 ft 440 kts 88°
2026-05-08 17:20 51.40919 9.97714 27151 ft 440 kts 88°
2026-05-08 17:21 51.41031 10.02611 27145 ft 440 kts 88°
2026-05-08 17:21 51.41139 10.07507 27151 ft 440 kts 88°
2026-05-08 17:21 51.41242 10.12406 27147 ft 440 kts 88°
2026-05-08 17:21 51.41379 10.18898 27145 ft 441 kts 88°
2026-05-08 17:22 51.41449 10.22218 27145 ft 441 kts 88°
2026-05-08 17:22 51.41588 10.28708 27146 ft 441 kts 88°
2026-05-08 17:22 51.41656 10.31970 27146 ft 441 kts 88°
2026-05-08 17:22 51.41753 10.36880 27148 ft 441 kts 88°
2026-05-08 17:23 51.41847 10.41796 27154 ft 442 kts 88°
2026-05-08 17:23 51.41943 10.46713 27156 ft 442 kts 88°
2026-05-08 17:23 51.41984 10.51630 27158 ft 441 kts 93°
2026-05-08 17:23 51.41620 10.56505 27157 ft 441 kts 100°
2026-05-08 17:24 51.41122 10.61344 27157 ft 441 kts 100°
2026-05-08 17:24 51.40624 10.66197 27154 ft 441 kts 100°
2026-05-08 17:24 51.40135 10.71041 27149 ft 441 kts 99°
2026-05-08 17:24 51.39652 10.75890 27157 ft 441 kts 99°
2026-05-08 17:25 51.39178 10.80681 27156 ft 441 kts 99°
2026-05-08 17:25 51.38699 10.85538 27155 ft 441 kts 99°
2026-05-08 17:25 51.38224 10.90398 27157 ft 442 kts 98°
2026-05-08 17:25 51.38040 10.95297 27158 ft 442 kts 89°
2026-05-08 17:26 51.38210 11.00207 27161 ft 442 kts 86°
2026-05-08 17:26 51.38401 11.05121 27167 ft 442 kts 86°
2026-05-08 17:26 51.38584 11.10029 27159 ft 442 kts 86°
2026-05-08 17:26 51.38762 11.14944 27163 ft 442 kts 86°
2026-05-08 17:27 51.38938 11.19863 27164 ft 442 kts 86°
2026-05-08 17:27 51.39111 11.24779 27164 ft 442 kts 86°
2026-05-08 17:27 51.39280 11.29627 27164 ft 442 kts 87°
2026-05-08 17:27 51.39450 11.34550 27163 ft 443 kts 87°
2026-05-08 17:28 51.39615 11.39469 27166 ft 443 kts 87°
2026-05-08 17:28 51.39779 11.44391 27160 ft 443 kts 87°
2026-05-08 17:28 51.39944 11.49317 27163 ft 443 kts 87°
2026-05-08 17:28 51.40111 11.54242 27164 ft 443 kts 87°
2026-05-08 17:29 51.40276 11.59166 27170 ft 443 kts 87°
2026-05-08 17:29 51.40439 11.64089 27171 ft 443 kts 87°
2026-05-08 17:29 51.40598 11.69020 27163 ft 443 kts 87°
2026-05-08 17:29 51.40755 11.73945 27171 ft 443 kts 87°
2026-05-08 17:30 51.40910 11.78872 27178 ft 443 kts 87°
2026-05-08 17:30 51.41060 11.83736 27170 ft 443 kts 87°
2026-05-08 17:30 51.41206 11.88664 27178 ft 443 kts 87°
2026-05-08 17:30 51.41347 11.93596 27179 ft 443 kts 87°
2026-05-08 17:31 51.41487 11.98525 27182 ft 444 kts 87°
2026-05-08 17:31 51.41628 12.03463 27184 ft 444 kts 87°
2026-05-08 17:31 51.41771 12.08406 27067 ft 444 kts 87°
2026-05-08 17:31 51.41915 12.13343 26819 ft 443 kts 87°
2026-05-08 17:32 51.42055 12.18263 26562 ft 442 kts 87°
2026-05-08 17:32 51.42193 12.23168 26307 ft 440 kts 87°
2026-05-08 17:32 51.42325 12.27977 25743 ft 436 kts 87°
2026-05-08 17:32 51.42455 12.32802 25124 ft 433 kts 87°
2026-05-08 17:33 51.42577 12.37606 24517 ft 430 kts 88°
2026-05-08 17:33 51.42695 12.42380 23925 ft 427 kts 88°
2026-05-08 17:33 51.42809 12.47119 23298 ft 424 kts 89°
2026-05-08 17:33 51.42617 12.51786 22752 ft 418 kts 99°
2026-05-08 17:34 51.41925 12.56260 22272 ft 410 kts 110°
2026-05-08 17:34 51.40796 12.60417 21789 ft 404 kts 120°
2026-05-08 17:34 51.39350 12.64227 21339 ft 398 kts 123°
2026-05-08 17:34 51.37916 12.67913 20887 ft 393 kts 123°
2026-05-08 17:35 51.36481 12.71599 20428 ft 389 kts 123°
2026-05-08 17:35 51.35053 12.75258 19961 ft 386 kts 123°
2026-05-08 17:35 51.33637 12.78883 19497 ft 383 kts 123°
2026-05-08 17:35 51.32220 12.82506 18733 ft 388 kts 123°
2026-05-08 17:36 51.30767 12.86215 17635 ft 398 kts 123°
2026-05-08 17:36 51.29304 12.89950 16522 ft 395 kts 123°
2026-05-08 17:36 51.27856 12.93644 15463 ft 391 kts 123°
2026-05-08 17:36 51.26414 12.97323 14594 ft 391 kts 123°
2026-05-08 17:37 51.24981 13.00986 14073 ft 388 kts 123°
2026-05-08 17:37 51.23574 13.04581 13525 ft 385 kts 123°
2026-05-08 17:37 51.22163 13.08178 12987 ft 381 kts 123°
2026-05-08 17:37 51.20763 13.11737 12462 ft 376 kts 123°
2026-05-08 17:38 51.19376 13.15255 11923 ft 372 kts 122°
2026-05-08 17:38 51.18004 13.18724 11399 ft 368 kts 122°
2026-05-08 17:38 51.16645 13.22152 10867 ft 364 kts 122°
2026-05-08 17:38 51.15307 13.25520 10606 ft 350 kts 122°
2026-05-08 17:39 51.14054 13.28663 10472 ft 323 kts 122°
2026-05-08 17:39 51.12889 13.31580 10268 ft 304 kts 122°
2026-05-08 17:39 51.11780 13.34355 10020 ft 298 kts 122°
2026-05-08 17:39 51.10666 13.37112 9693 ft 295 kts 124°
2026-05-08 17:40 51.09479 13.39754 9328 ft 292 kts 130°
2026-05-08 17:40 51.07911 13.41725 8976 ft 288 kts 156°
2026-05-08 17:40 51.05985 13.42434 8668 ft 285 kts 181°
2026-05-08 17:40 51.04066 13.41866 8410 ft 279 kts 204°
2026-05-08 17:41 51.02480 13.40217 8155 ft 269 kts 222°
2026-05-08 17:41 51.01072 13.38305 7921 ft 262 kts 222°
2026-05-08 17:41 50.99715 13.36459 7750 ft 249 kts 223°
2026-05-08 17:41 50.98312 13.35019 7527 ft 235 kts 202°
2026-05-08 17:42 50.96730 13.34568 7147 ft 231 kts 179°
2026-05-08 17:42 50.95175 13.35149 6705 ft 232 kts 155°
2026-05-08 17:42 50.93888 13.36667 6206 ft 232 kts 132°
2026-05-08 17:42 50.92846 13.38608 5704 ft 231 kts 131°
2026-05-08 17:43 50.91849 13.40579 5349 ft 229 kts 120°
2026-05-08 17:43 50.91318 13.42939 5074 ft 228 kts 95°
2026-05-08 17:43 50.91428 13.45373 4802 ft 225 kts 72°
2026-05-08 17:43 50.92146 13.47575 4511 ft 222 kts 48°
2026-05-08 17:44 50.93250 13.49211 4248 ft 219 kts 39°
2026-05-08 17:44 50.94402 13.50767 4096 ft 216 kts 39°
2026-05-08 17:44 50.95540 13.52312 4006 ft 213 kts 40°
2026-05-08 17:44 50.96634 13.53802 4002 ft 202 kts 40°
2026-05-08 17:45 50.97687 13.55236 4006 ft 198 kts 39°
2026-05-08 17:45 50.98725 13.56651 4008 ft 196 kts 40°
2026-05-08 17:45 50.99759 13.58061 3993 ft 196 kts 40°
2026-05-08 17:45 51.00785 13.59461 3827 ft 194 kts 40°
2026-05-08 17:46 51.01806 13.60857 3585 ft 194 kts 41°
2026-05-08 17:46 51.02834 13.62261 3326 ft 196 kts 41°
2026-05-08 17:46 51.03854 13.63656 3080 ft 194 kts 41°
2026-05-08 17:46 51.04861 13.65033 2801 ft 186 kts 41°
2026-05-08 17:47 51.05810 13.66332 2554 ft 173 kts 41°
2026-05-08 17:47 51.06682 13.67527 2351 ft 156 kts 41°
2026-05-08 17:47 51.07471 13.68608 2117 ft 144 kts 41°
2026-05-08 17:47 51.07962 13.69281 1989 ft 138 kts 41°
2026-05-08 17:48 51.08918 13.70593 1744 ft 134 kts 41°
2026-05-08 17:48 51.09621 13.71557 1545 ft 133 kts 41°
2026-05-08 17:48 51.10312 13.72506 1364 ft 133 kts 41°
2026-05-08 17:48 51.11006 13.73457 1207 ft 134 kts 41°
2026-05-08 17:49 51.11705 13.74413 1028 ft 133 kts 41°
2026-05-08 17:49 51.12403 13.75375 827 ft 132 kts 41°
2026-05-08 17:49 51.13046 13.76266 752 ft 106 kts 41°
2026-05-08 17:49 51.13470 13.76855 739 ft 56 kts 41°
2026-05-08 17:50 51.13722 13.77204 729 ft 45 kts 41°
2026-05-08 17:50 51.13877 13.77419 724 ft 16 kts 41°
2026-05-08 17:50 51.13867 13.77575 719 ft 18 kts 130°
2026-05-08 17:50 51.13819 13.77664 716 ft 0 kts 130°
2026-05-08 17:51 51.13810 13.77680 718 ft 7 kts 130°
2026-05-08 17:51 51.13761 13.77713 715 ft 8 kts 188°
2026-05-08 17:51 51.13719 13.77671 718 ft 9 kts 218°
2026-05-08 17:51 51.13647 13.77579 720 ft 16 kts 219°
2026-05-08 17:52 51.13560 13.77450 724 ft 18 kts 224°
2026-05-08 17:52 51.13461 13.77304 731 ft 21 kts 221°
2026-05-08 17:52 51.13248 13.77015 744 ft 17 kts 220°
2026-05-08 17:53 51.13163 13.76900 745 ft 14 kts 220°
2026-05-08 17:53 51.13097 13.76812 747 ft 11 kts 220°
2026-05-08 17:53 51.13048 13.76747 749 ft 8 kts 220°
2026-05-08 17:53 51.12987 13.76663 749 ft 17 kts 221°
2026-05-08 17:54 51.12906 13.76549 752 ft 15 kts 221°
2026-05-08 17:54 51.12842 13.76463 753 ft 9 kts 213°
2026-05-08 17:54 51.12764 13.76506 752 ft 15 kts 132°
2026-05-08 17:54 51.12692 13.76638 750 ft 15 kts 131°
2026-05-08 17:55 51.12643 13.76727 752 ft 8 kts 131°
2026-05-08 17:55 51.12603 13.76723 751 ft 6 kts 212°
2026-05-08 17:55 51.12575 13.76683 748 ft 5 kts 222°
2026-05-08 17:55 51.12568 13.76673 748 ft 0 kts 221°